Year,Month,Day,Hour,Minute,Value (Times are PST for windgust in km/hr)
2017,06,15,00,14,1.60
2017,06,15,00,22,3.20
2017,06,15,00,23,1.60
2017,06,15,00,24,3.20
2017,06,15,01,14,1.60
2017,06,15,01,15,3.20
2017,06,15,01,23,3.20
2017,06,15,01,24,3.20
2017,06,15,01,31,1.60
2017,06,15,01,32,6.40
2017,06,15,01,33,6.40
2017,06,15,01,35,3.20
2017,06,15,01,36,1.60
2017,06,15,01,40,1.60
2017,06,15,01,42,3.20
2017,06,15,01,43,1.60
2017,06,15,01,48,1.60
2017,06,15,01,49,3.20
2017,06,15,01,50,1.60
2017,06,15,01,55,1.60
2017,06,15,01,56,3.20
2017,06,15,01,57,4.80
2017,06,15,01,59,3.20
2017,06,15,02,35,4.80
2017,06,15,02,36,3.20
2017,06,15,02,58,1.60
2017,06,15,03,18,1.60
2017,06,15,03,23,11.30
2017,06,15,03,24,8.10
2017,06,15,03,25,3.20
2017,06,15,03,30,6.40
2017,06,15,03,31,4.80
2017,06,15,03,32,6.40
2017,06,15,03,33,6.40
2017,06,15,03,34,4.80
2017,06,15,03,41,1.60
2017,06,15,03,49,1.60
2017,06,15,03,54,6.40
2017,06,15,03,55,6.40
2017,06,15,03,56,1.60
2017,06,15,04,09,3.20
2017,06,15,04,12,1.60
2017,06,15,04,14,4.80
2017,06,15,04,15,3.20
2017,06,15,04,19,1.60
2017,06,15,04,24,6.40
2017,06,15,04,25,3.20
2017,06,15,04,27,3.20
2017,06,15,04,28,3.20
2017,06,15,04,38,6.40
2017,06,15,04,39,4.80
2017,06,15,04,41,8.10
2017,06,15,04,42,3.20
2017,06,15,04,43,3.20
2017,06,15,04,48,1.60
2017,06,15,04,53,8.10
2017,06,15,04,54,8.10
2017,06,15,04,56,8.10
2017,06,15,04,57,6.40
2017,06,15,05,01,1.60
2017,06,15,05,02,6.40
2017,06,15,05,03,6.40
2017,06,15,05,04,6.40
2017,06,15,05,05,6.40
2017,06,15,05,06,9.60
2017,06,15,05,07,3.20
2017,06,15,05,09,3.20
2017,06,15,05,11,1.60
2017,06,15,05,15,8.10
2017,06,15,05,16,8.10
2017,06,15,05,17,6.40
2017,06,15,05,18,3.20
2017,06,15,05,21,3.20
2017,06,15,05,23,1.60
2017,06,15,05,26,8.10
2017,06,15,05,27,9.60
2017,06,15,05,29,6.40
2017,06,15,05,30,3.20
2017,06,15,05,33,3.20
2017,06,15,05,34,3.20
2017,06,15,05,35,3.20
2017,06,15,05,36,8.10
2017,06,15,05,37,6.40
2017,06,15,05,40,6.40
2017,06,15,05,41,6.40
2017,06,15,05,42,1.60
2017,06,15,05,43,6.40
2017,06,15,05,44,6.40
2017,06,15,05,45,3.20
2017,06,15,05,46,3.20
2017,06,15,05,47,3.20
2017,06,15,05,49,6.40
2017,06,15,05,50,8.10
2017,06,15,05,51,6.40
2017,06,15,05,52,3.20
2017,06,15,05,53,8.10
2017,06,15,05,54,4.80
2017,06,15,06,01,9.60
2017,06,15,06,02,9.60
2017,06,15,06,03,6.40
2017,06,15,06,04,1.60
2017,06,15,06,10,1.60
2017,06,15,06,13,11.30
2017,06,15,06,14,3.20
2017,06,15,06,15,8.10
2017,06,15,06,16,8.10
2017,06,15,06,17,3.20
2017,06,15,06,18,12.90
2017,06,15,06,19,9.60
2017,06,15,06,20,6.40
2017,06,15,06,21,8.10
2017,06,15,06,22,3.20
2017,06,15,06,26,3.20
2017,06,15,06,27,9.60
2017,06,15,06,28,16.10
2017,06,15,06,29,8.10
2017,06,15,06,30,6.40
2017,06,15,06,31,6.40
2017,06,15,06,32,6.40
2017,06,15,06,33,1.60
2017,06,15,06,34,6.40
2017,06,15,06,38,16.10
2017,06,15,06,39,8.10
2017,06,15,06,40,9.60
2017,06,15,06,41,12.90
2017,06,15,06,42,9.60
2017,06,15,06,43,6.40
2017,06,15,06,44,6.40
2017,06,15,06,45,11.30
2017,06,15,06,46,11.30
2017,06,15,06,47,9.60
2017,06,15,06,48,14.50
2017,06,15,06,49,1.60
2017,06,15,06,50,6.40
2017,06,15,06,51,3.20
2017,06,15,06,52,8.10
2017,06,15,06,53,12.90
2017,06,15,06,54,8.10
2017,06,15,06,55,12.90
2017,06,15,06,56,12.90
2017,06,15,06,57,3.20
2017,06,15,06,58,8.10
2017,06,15,06,59,9.60
2017,06,15,07,00,9.60
2017,06,15,07,01,8.10
2017,06,15,07,02,6.40
2017,06,15,07,03,8.10
2017,06,15,07,04,17.70
2017,06,15,07,05,9.60
2017,06,15,07,06,3.20
2017,06,15,07,07,11.30
2017,06,15,07,08,12.90
2017,06,15,07,09,11.30
2017,06,15,07,10,3.20
2017,06,15,07,11,12.90
2017,06,15,07,12,9.60
2017,06,15,07,13,9.60
2017,06,15,07,14,17.70
2017,06,15,07,15,17.70
2017,06,15,07,16,6.40
2017,06,15,07,17,9.60
2017,06,15,07,18,9.60
2017,06,15,07,19,12.90
2017,06,15,07,20,9.60
2017,06,15,07,21,9.60
2017,06,15,07,22,24.20
2017,06,15,07,23,1.60
2017,06,15,07,24,14.50
2017,06,15,07,25,11.30
2017,06,15,07,26,19.30
2017,06,15,07,27,19.30
2017,06,15,07,28,11.30
2017,06,15,07,29,9.60
2017,06,15,07,30,11.30
2017,06,15,07,31,14.50
2017,06,15,07,32,6.40
2017,06,15,07,33,9.60
2017,06,15,07,34,9.60
2017,06,15,07,35,8.10
2017,06,15,07,36,11.30
2017,06,15,07,37,12.90
2017,06,15,07,38,25.70
2017,06,15,07,39,12.90
2017,06,15,07,40,19.30
2017,06,15,07,41,9.60
2017,06,15,07,42,9.60
2017,06,15,07,43,12.90
2017,06,15,07,44,20.90
2017,06,15,07,45,6.40
2017,06,15,07,46,11.30
2017,06,15,07,47,17.70
2017,06,15,07,48,14.50
2017,06,15,07,49,16.10
2017,06,15,07,50,14.50
2017,06,15,07,51,16.10
2017,06,15,07,52,14.50
2017,06,15,07,53,12.90
2017,06,15,07,54,9.60
2017,06,15,07,55,12.90
2017,06,15,07,56,11.30
2017,06,15,07,57,14.50
2017,06,15,07,58,11.30
2017,06,15,07,59,16.10
2017,06,15,08,00,33.80
2017,06,15,08,01,11.30
2017,06,15,08,02,19.30
2017,06,15,08,03,11.30
2017,06,15,08,04,11.30
2017,06,15,08,05,22.50
2017,06,15,08,06,24.20
2017,06,15,08,07,14.50
2017,06,15,08,08,12.90
2017,06,15,08,09,14.50
2017,06,15,08,10,8.10
2017,06,15,08,11,9.60
2017,06,15,08,12,14.50
2017,06,15,08,13,16.10
2017,06,15,08,14,16.10
2017,06,15,08,15,14.50
2017,06,15,08,16,9.60
2017,06,15,08,17,16.10
2017,06,15,08,18,9.60
2017,06,15,08,19,14.50
2017,06,15,08,20,14.50
2017,06,15,08,21,12.90
2017,06,15,08,22,24.20
2017,06,15,08,23,16.10
2017,06,15,08,24,8.10
2017,06,15,08,25,9.60
2017,06,15,08,26,8.10
2017,06,15,08,27,9.60
2017,06,15,08,28,19.30
2017,06,15,08,29,9.60
2017,06,15,08,30,9.60
2017,06,15,08,31,14.50
2017,06,15,08,32,16.10
2017,06,15,08,33,16.10
2017,06,15,08,34,12.90
2017,06,15,08,35,12.90
2017,06,15,08,36,24.20
2017,06,15,08,37,22.50
2017,06,15,08,38,22.50
2017,06,15,08,39,16.10
2017,06,15,08,40,9.60
2017,06,15,08,41,22.50
2017,06,15,08,42,29.00
2017,06,15,08,43,20.90
2017,06,15,08,44,14.50
2017,06,15,08,45,14.50
2017,06,15,08,46,17.70
2017,06,15,08,47,22.50
2017,06,15,08,48,19.30
2017,06,15,08,49,20.90
2017,06,15,08,50,22.50
2017,06,15,08,51,16.10
2017,06,15,08,52,19.30
2017,06,15,08,53,19.30
2017,06,15,08,54,11.30
2017,06,15,08,55,25.70
2017,06,15,08,56,30.60
2017,06,15,08,57,12.90
2017,06,15,08,58,22.50
2017,06,15,08,59,14.50
2017,06,15,09,00,11.30
2017,06,15,09,01,8.10
2017,06,15,09,02,17.70
2017,06,15,09,03,16.10
2017,06,15,09,04,17.70
2017,06,15,09,05,14.50
2017,06,15,09,06,32.20
2017,06,15,09,07,17.70
2017,06,15,09,08,25.70
2017,06,15,09,09,17.70
2017,06,15,09,10,25.70
2017,06,15,09,11,19.30
2017,06,15,09,12,25.70
2017,06,15,09,13,22.50
2017,06,15,09,14,20.90
2017,06,15,09,15,22.50
2017,06,15,09,16,20.90
2017,06,15,09,17,12.90
2017,06,15,09,18,24.20
2017,06,15,09,19,19.30
2017,06,15,09,20,20.90
2017,06,15,09,21,22.50
2017,06,15,09,22,38.60
2017,06,15,09,23,25.70
2017,06,15,09,24,24.20
2017,06,15,09,25,17.70
2017,06,15,09,26,22.50
2017,06,15,09,27,20.90
2017,06,15,09,28,8.10
2017,06,15,09,29,25.70
2017,06,15,09,30,24.20
2017,06,15,09,31,14.50
2017,06,15,09,32,20.90
2017,06,15,09,33,16.10
2017,06,15,09,34,29.00
2017,06,15,09,35,19.30
2017,06,15,09,36,16.10
2017,06,15,09,37,33.80
2017,06,15,09,38,33.80
2017,06,15,09,39,29.00
2017,06,15,09,40,19.30
2017,06,15,09,41,24.20
2017,06,15,09,42,29.00
2017,06,15,09,43,22.50
2017,06,15,09,44,25.70
2017,06,15,09,45,24.20
2017,06,15,09,46,25.70
2017,06,15,09,47,24.20
2017,06,15,09,48,16.10
2017,06,15,09,49,25.70
2017,06,15,09,50,48.30
2017,06,15,09,51,37.00
2017,06,15,09,52,32.20
2017,06,15,09,53,35.40
2017,06,15,09,54,29.00
2017,06,15,09,55,24.20
2017,06,15,09,56,32.20
2017,06,15,09,57,24.20
2017,06,15,09,58,24.20
2017,06,15,09,59,24.20
2017,06,15,10,00,37.00
2017,06,15,10,01,33.80
2017,06,15,10,02,25.70
2017,06,15,10,03,16.10
2017,06,15,10,04,30.60
2017,06,15,10,05,19.30
2017,06,15,10,06,14.50
2017,06,15,10,07,38.60
2017,06,15,10,08,32.20
2017,06,15,10,09,32.20
2017,06,15,10,10,20.90
2017,06,15,10,11,25.70
2017,06,15,10,12,19.30
2017,06,15,10,13,24.20
2017,06,15,10,14,29.00
2017,06,15,10,15,32.20
2017,06,15,10,16,20.90
2017,06,15,10,17,25.70
2017,06,15,10,18,20.90
2017,06,15,10,19,32.20
2017,06,15,10,20,38.60
2017,06,15,10,21,30.60
2017,06,15,10,22,25.70
2017,06,15,10,23,19.30
2017,06,15,10,24,37.00
2017,06,15,10,25,37.00
2017,06,15,10,26,25.70
2017,06,15,10,27,32.20
2017,06,15,10,28,24.20
2017,06,15,10,29,29.00
2017,06,15,10,30,30.60
2017,06,15,10,31,37.00
2017,06,15,10,32,19.30
2017,06,15,10,33,43.50
2017,06,15,10,34,22.50
2017,06,15,10,35,25.70
2017,06,15,10,36,22.50
2017,06,15,10,37,29.00
2017,06,15,10,38,24.20
2017,06,15,10,39,24.20
2017,06,15,10,40,19.30
2017,06,15,10,41,32.20
2017,06,15,10,42,29.00
2017,06,15,10,43,22.50
2017,06,15,10,44,25.70
2017,06,15,10,45,33.80
2017,06,15,10,46,33.80
2017,06,15,10,47,19.30
2017,06,15,10,48,33.80
2017,06,15,10,49,16.10
2017,06,15,10,50,22.50
2017,06,15,10,51,22.50
2017,06,15,10,52,16.10
2017,06,15,10,53,25.70
2017,06,15,10,54,25.70
2017,06,15,10,55,22.50
2017,06,15,10,56,16.10
2017,06,15,10,57,22.50
2017,06,15,10,58,19.30
2017,06,15,10,59,25.70
2017,06,15,11,00,37.00
2017,06,15,11,01,20.90
2017,06,15,11,02,30.60
2017,06,15,11,03,22.50
2017,06,15,11,04,24.20
2017,06,15,11,05,20.90
2017,06,15,11,06,35.40
2017,06,15,11,07,17.70
2017,06,15,11,08,37.00
2017,06,15,11,09,20.90
2017,06,15,11,10,40.20
2017,06,15,11,11,20.90
2017,06,15,11,12,25.70
2017,06,15,11,13,12.90
2017,06,15,11,14,17.70
2017,06,15,11,15,30.60
2017,06,15,11,16,30.60
2017,06,15,11,17,19.30
2017,06,15,11,18,20.90
2017,06,15,11,19,20.90
2017,06,15,11,20,25.70
2017,06,15,11,21,22.50
2017,06,15,11,22,25.70
2017,06,15,11,23,32.20
2017,06,15,11,24,24.20
2017,06,15,11,25,14.50
2017,06,15,11,26,25.70
2017,06,15,11,27,32.20
2017,06,15,11,28,29.00
2017,06,15,11,29,30.60
2017,06,15,11,30,16.10
2017,06,15,11,31,30.60
2017,06,15,11,32,25.70
2017,06,15,11,33,25.70
2017,06,15,11,34,35.40
2017,06,15,11,35,25.70
2017,06,15,11,36,24.20
2017,06,15,11,37,29.00
2017,06,15,11,38,32.20
2017,06,15,11,39,24.20
2017,06,15,11,40,33.80
2017,06,15,11,41,16.10
2017,06,15,11,42,30.60
2017,06,15,11,43,16.10
2017,06,15,11,44,33.80
2017,06,15,11,45,33.80
2017,06,15,11,46,30.60
2017,06,15,11,47,19.30
2017,06,15,11,48,29.00
2017,06,15,11,49,30.60
2017,06,15,11,50,19.30
2017,06,15,11,51,22.50
2017,06,15,11,52,30.60
2017,06,15,11,53,25.70
2017,06,15,11,54,25.70
2017,06,15,11,55,29.00
2017,06,15,11,56,19.30
2017,06,15,11,57,37.00
2017,06,15,11,58,37.00
2017,06,15,11,59,19.30
2017,06,15,12,00,30.60
2017,06,15,12,01,17.70
2017,06,15,12,02,17.70
2017,06,15,12,03,22.50
2017,06,15,12,04,29.00
2017,06,15,12,05,35.40
2017,06,15,12,06,33.80
2017,06,15,12,07,37.00
2017,06,15,12,08,29.00
2017,06,15,12,09,38.60
2017,06,15,12,10,30.60
2017,06,15,12,11,30.60
2017,06,15,12,12,29.00
2017,06,15,12,13,35.40
2017,06,15,12,14,25.70
2017,06,15,12,15,30.60
2017,06,15,12,16,20.90
2017,06,15,12,17,22.50
2017,06,15,12,18,33.80
2017,06,15,12,19,32.20
2017,06,15,12,20,24.20
2017,06,15,12,21,24.20
2017,06,15,12,22,32.20
2017,06,15,12,23,19.30
2017,06,15,12,24,19.30
2017,06,15,12,25,45.10
2017,06,15,12,26,41.80
2017,06,15,12,27,14.50
2017,06,15,12,28,25.70
2017,06,15,12,29,40.20
2017,06,15,12,30,8.10
2017,06,15,12,31,16.10
2017,06,15,12,32,19.30
2017,06,15,12,33,33.80
2017,06,15,12,34,30.60
2017,06,15,12,35,29.00
2017,06,15,12,36,19.30
2017,06,15,12,37,14.50
2017,06,15,12,38,17.70
2017,06,15,12,39,9.60
2017,06,15,12,40,24.20
2017,06,15,12,41,17.70
2017,06,15,12,42,20.90
2017,06,15,12,43,37.00
2017,06,15,12,44,45.10
2017,06,15,12,45,16.10
2017,06,15,12,46,38.60
2017,06,15,12,47,33.80
2017,06,15,12,48,20.90
2017,06,15,12,49,41.80
2017,06,15,12,50,20.90
2017,06,15,12,51,51.50
2017,06,15,12,52,25.70
2017,06,15,12,53,29.00
2017,06,15,12,54,29.00
2017,06,15,12,55,24.20
2017,06,15,12,56,33.80
2017,06,15,12,57,33.80
2017,06,15,12,58,30.60
2017,06,15,12,59,20.90
2017,06,15,13,00,22.50
2017,06,15,13,01,35.40
2017,06,15,13,02,45.10
2017,06,15,13,03,37.00
2017,06,15,13,04,29.00
2017,06,15,13,05,30.60
2017,06,15,13,06,20.90
2017,06,15,13,07,57.90
2017,06,15,13,08,20.90
2017,06,15,13,09,35.40
2017,06,15,13,10,22.50
2017,06,15,13,11,22.50
2017,06,15,13,12,30.60
2017,06,15,13,13,33.80
2017,06,15,13,14,14.50
2017,06,15,13,15,16.10
2017,06,15,13,16,30.60
2017,06,15,13,17,30.60
2017,06,15,13,18,22.50
2017,06,15,13,19,17.70
2017,06,15,13,20,12.90
2017,06,15,13,21,16.10
2017,06,15,13,22,29.00
2017,06,15,13,23,22.50
2017,06,15,13,24,14.50
2017,06,15,13,25,9.60
2017,06,15,13,26,17.70
2017,06,15,13,27,38.60
2017,06,15,13,28,35.40
2017,06,15,13,29,17.70
2017,06,15,13,30,25.70
2017,06,15,13,31,25.70
2017,06,15,13,32,22.50
2017,06,15,13,33,20.90
2017,06,15,13,34,30.60
2017,06,15,13,35,19.30
2017,06,15,13,36,24.20
2017,06,15,13,37,19.30
2017,06,15,13,38,35.40
2017,06,15,13,39,25.70
2017,06,15,13,40,20.90
2017,06,15,13,41,29.00
2017,06,15,13,42,30.60
2017,06,15,13,43,19.30
2017,06,15,13,44,19.30
2017,06,15,13,45,41.80
2017,06,15,13,46,24.20
2017,06,15,13,47,9.60
2017,06,15,13,48,24.20
2017,06,15,13,49,41.80
2017,06,15,13,50,40.20
2017,06,15,13,51,32.20
2017,06,15,13,52,25.70
2017,06,15,13,53,24.20
2017,06,15,13,54,24.20
2017,06,15,13,55,24.20
2017,06,15,13,56,29.00
2017,06,15,13,57,29.00
2017,06,15,13,58,20.90
2017,06,15,13,59,22.50
2017,06,15,14,00,32.20
2017,06,15,14,01,12.90
2017,06,15,14,02,29.00
2017,06,15,14,03,24.20
2017,06,15,14,04,32.20
2017,06,15,14,05,29.00
2017,06,15,14,06,25.70
2017,06,15,14,07,19.30
2017,06,15,14,08,12.90
2017,06,15,14,09,14.50
2017,06,15,14,10,19.30
2017,06,15,14,11,20.90
2017,06,15,14,12,30.60
2017,06,15,14,13,20.90
2017,06,15,14,14,22.50
2017,06,15,14,15,25.70
2017,06,15,14,16,20.90
2017,06,15,14,17,14.50
2017,06,15,14,18,14.50
2017,06,15,14,19,25.70
2017,06,15,14,20,22.50
2017,06,15,14,21,14.50
2017,06,15,14,22,22.50
2017,06,15,14,23,17.70
2017,06,15,14,24,30.60
2017,06,15,14,25,45.10
2017,06,15,14,26,29.00
2017,06,15,14,27,30.60
2017,06,15,14,28,35.40
2017,06,15,14,29,41.80
2017,06,15,14,30,20.90
2017,06,15,14,31,22.50
2017,06,15,14,32,29.00
2017,06,15,14,33,19.30
2017,06,15,14,34,14.50
2017,06,15,14,35,33.80
2017,06,15,14,36,29.00
2017,06,15,14,37,22.50
2017,06,15,14,38,33.80
2017,06,15,14,39,29.00
2017,06,15,14,40,25.70
2017,06,15,14,41,19.30
2017,06,15,14,42,29.00
2017,06,15,14,43,20.90
2017,06,15,14,44,29.00
2017,06,15,14,45,25.70
2017,06,15,14,46,38.60
2017,06,15,14,47,32.20
2017,06,15,14,48,33.80
2017,06,15,14,49,19.30
2017,06,15,14,50,29.00
2017,06,15,14,51,33.80
2017,06,15,14,52,17.70
2017,06,15,14,53,20.90
2017,06,15,14,54,24.20
2017,06,15,14,55,22.50
2017,06,15,14,56,33.80
2017,06,15,14,57,32.20
2017,06,15,14,58,20.90
2017,06,15,14,59,32.20
2017,06,15,15,00,35.40
2017,06,15,15,01,22.50
2017,06,15,15,02,12.90
2017,06,15,15,03,22.50
2017,06,15,15,04,35.40
2017,06,15,15,05,22.50
2017,06,15,15,06,33.80
2017,06,15,15,07,35.40
2017,06,15,15,08,19.30
2017,06,15,15,09,32.20
2017,06,15,15,10,24.20
2017,06,15,15,11,19.30
2017,06,15,15,12,25.70
2017,06,15,15,13,30.60
2017,06,15,15,14,37.00
2017,06,15,15,15,24.20
2017,06,15,15,16,16.10
2017,06,15,15,17,29.00
2017,06,15,15,18,16.10
2017,06,15,15,19,19.30
2017,06,15,15,20,32.20
2017,06,15,15,21,17.70
2017,06,15,15,22,20.90
2017,06,15,15,23,37.00
2017,06,15,15,24,33.80
2017,06,15,15,25,35.40
2017,06,15,15,26,33.80
2017,06,15,15,27,19.30
2017,06,15,15,28,12.90
2017,06,15,15,29,32.20
2017,06,15,15,30,30.60
2017,06,15,15,31,24.20
2017,06,15,15,32,24.20
2017,06,15,15,33,32.20
2017,06,15,15,34,29.00
2017,06,15,15,35,30.60
2017,06,15,15,36,35.40
2017,06,15,15,37,43.50
2017,06,15,15,38,25.70
2017,06,15,15,39,38.60
2017,06,15,15,40,38.60
2017,06,15,15,41,19.30
2017,06,15,15,42,35.40
2017,06,15,15,43,41.80
2017,06,15,15,44,30.60
2017,06,15,15,45,22.50
2017,06,15,15,46,37.00
2017,06,15,15,47,22.50
2017,06,15,15,48,29.00
2017,06,15,15,49,30.60
2017,06,15,15,50,40.20
2017,06,15,15,51,33.80
2017,06,15,15,52,35.40
2017,06,15,15,53,24.20
2017,06,15,15,54,16.10
2017,06,15,15,55,19.30
2017,06,15,15,56,35.40
2017,06,15,15,57,24.20
2017,06,15,15,58,37.00
2017,06,15,15,59,17.70
2017,06,15,16,00,19.30
2017,06,15,16,01,17.70
2017,06,15,16,02,25.70
2017,06,15,16,03,14.50
2017,06,15,16,04,19.30
2017,06,15,16,05,25.70
2017,06,15,16,06,19.30
2017,06,15,16,07,24.20
2017,06,15,16,08,25.70
2017,06,15,16,09,25.70
2017,06,15,16,10,16.10
2017,06,15,16,11,19.30
2017,06,15,16,12,24.20
2017,06,15,16,13,24.20
2017,06,15,16,14,25.70
2017,06,15,16,15,30.60
2017,06,15,16,16,20.90
2017,06,15,16,17,16.10
2017,06,15,16,18,11.30
2017,06,15,16,19,9.60
2017,06,15,16,20,30.60
2017,06,15,16,21,19.30
2017,06,15,16,22,35.40
2017,06,15,16,23,32.20
2017,06,15,16,24,14.50
2017,06,15,16,25,33.80
2017,06,15,16,26,17.70
2017,06,15,16,27,20.90
2017,06,15,16,28,22.50
2017,06,15,16,29,19.30
2017,06,15,16,30,25.70
2017,06,15,16,31,19.30
2017,06,15,16,32,17.70
2017,06,15,16,33,22.50
2017,06,15,16,34,14.50
2017,06,15,16,35,17.70
2017,06,15,16,36,19.30
2017,06,15,16,37,22.50
2017,06,15,16,38,22.50
2017,06,15,16,39,29.00
2017,06,15,16,40,25.70
2017,06,15,16,41,24.20
2017,06,15,16,42,25.70
2017,06,15,16,43,22.50
2017,06,15,16,44,25.70
2017,06,15,16,45,25.70
2017,06,15,16,46,20.90
2017,06,15,16,47,25.70
2017,06,15,16,48,17.70
2017,06,15,16,49,17.70
2017,06,15,16,50,25.70
2017,06,15,16,51,12.90
2017,06,15,16,52,12.90
2017,06,15,16,53,12.90
2017,06,15,16,54,11.30
2017,06,15,16,55,16.10
2017,06,15,16,56,11.30
2017,06,15,16,57,11.30
2017,06,15,16,58,17.70
2017,06,15,16,59,25.70
2017,06,15,17,00,37.00
2017,06,15,17,01,29.00
2017,06,15,17,02,19.30
2017,06,15,17,03,30.60
2017,06,15,17,04,20.90
2017,06,15,17,05,29.00
2017,06,15,17,06,20.90
2017,06,15,17,07,33.80
2017,06,15,17,08,33.80
2017,06,15,17,09,29.00
2017,06,15,17,10,20.90
2017,06,15,17,11,11.30
2017,06,15,17,12,16.10
2017,06,15,17,13,17.70
2017,06,15,17,14,37.00
2017,06,15,17,15,25.70
2017,06,15,17,16,22.50
2017,06,15,17,17,22.50
2017,06,15,17,18,32.20
2017,06,15,17,19,17.70
2017,06,15,17,20,30.60
2017,06,15,17,21,19.30
2017,06,15,17,22,29.00
2017,06,15,17,23,22.50
2017,06,15,17,24,22.50
2017,06,15,17,25,16.10
2017,06,15,17,26,30.60
2017,06,15,17,27,17.70
2017,06,15,17,28,12.90
2017,06,15,17,29,17.70
2017,06,15,17,30,20.90
2017,06,15,17,31,24.20
2017,06,15,17,32,17.70
2017,06,15,17,33,17.70
2017,06,15,17,34,17.70
2017,06,15,17,35,19.30
2017,06,15,17,36,19.30
2017,06,15,17,37,16.10
2017,06,15,17,38,20.90
2017,06,15,17,39,24.20
2017,06,15,17,40,17.70
2017,06,15,17,41,14.50
2017,06,15,17,42,14.50
2017,06,15,17,43,30.60
2017,06,15,17,44,16.10
2017,06,15,17,45,12.90
2017,06,15,17,46,16.10
2017,06,15,17,47,24.20
2017,06,15,17,48,24.20
2017,06,15,17,49,16.10
2017,06,15,17,50,22.50
2017,06,15,17,51,22.50
2017,06,15,17,52,9.60
2017,06,15,17,54,6.40
2017,06,15,17,55,11.30
2017,06,15,17,56,12.90
2017,06,15,17,57,9.60
2017,06,15,17,58,12.90
2017,06,15,17,59,14.50
2017,06,15,18,00,11.30
2017,06,15,18,01,20.90
2017,06,15,18,02,16.10
2017,06,15,18,03,25.70
2017,06,15,18,04,22.50
2017,06,15,18,05,16.10
2017,06,15,18,06,11.30
2017,06,15,18,07,16.10
2017,06,15,18,08,11.30
2017,06,15,18,09,12.90
2017,06,15,18,10,11.30
2017,06,15,18,11,14.50
2017,06,15,18,12,20.90
2017,06,15,18,13,16.10
2017,06,15,18,14,9.60
2017,06,15,18,15,14.50
2017,06,15,18,16,9.60
2017,06,15,18,17,4.80
2017,06,15,18,18,12.90
2017,06,15,18,19,12.90
2017,06,15,18,20,11.30
2017,06,15,18,21,16.10
2017,06,15,18,22,8.10
2017,06,15,18,23,14.50
2017,06,15,18,24,14.50
2017,06,15,18,25,11.30
2017,06,15,18,26,12.90
2017,06,15,18,27,14.50
2017,06,15,18,28,11.30
2017,06,15,18,29,16.10
2017,06,15,18,30,14.50
2017,06,15,18,31,14.50
2017,06,15,18,32,9.60
2017,06,15,18,33,12.90
2017,06,15,18,34,9.60
2017,06,15,18,35,9.60
2017,06,15,18,36,11.30
2017,06,15,18,37,11.30
2017,06,15,18,38,8.10
2017,06,15,18,39,8.10
2017,06,15,18,40,11.30
2017,06,15,18,41,14.50
2017,06,15,18,42,12.90
2017,06,15,18,43,11.30
2017,06,15,18,44,8.10
2017,06,15,18,45,6.40
2017,06,15,18,46,12.90
2017,06,15,18,47,12.90
2017,06,15,18,48,16.10
2017,06,15,18,49,14.50
2017,06,15,18,50,12.90
2017,06,15,18,51,9.60
2017,06,15,18,52,9.60
2017,06,15,18,53,8.10
2017,06,15,18,54,9.60
2017,06,15,18,55,14.50
2017,06,15,18,56,11.30
2017,06,15,18,57,11.30
2017,06,15,18,58,11.30
2017,06,15,18,59,12.90
2017,06,15,19,00,14.50
2017,06,15,19,01,20.90
2017,06,15,19,02,8.10
2017,06,15,19,03,11.30
2017,06,15,19,04,12.90
2017,06,15,19,05,9.60
2017,06,15,19,06,11.30
2017,06,15,19,07,3.20
2017,06,15,19,08,12.90
2017,06,15,19,09,12.90
2017,06,15,19,10,12.90
2017,06,15,19,11,14.50
2017,06,15,19,12,12.90
2017,06,15,19,13,12.90
2017,06,15,19,14,9.60
2017,06,15,19,15,14.50
2017,06,15,19,16,11.30
2017,06,15,19,18,8.10
2017,06,15,19,19,9.60
2017,06,15,19,20,6.40
2017,06,15,19,21,9.60
2017,06,15,19,22,14.50
2017,06,15,19,23,6.40
2017,06,15,19,24,8.10
2017,06,15,19,26,1.60
2017,06,15,19,27,8.10
2017,06,15,19,29,8.10
2017,06,15,19,30,8.10
2017,06,15,19,32,6.40
2017,06,15,19,33,9.60
2017,06,15,19,34,11.30
2017,06,15,19,35,9.60
2017,06,15,19,36,6.40
2017,06,15,19,37,8.10
2017,06,15,19,38,6.40
2017,06,15,19,39,12.90
2017,06,15,19,40,9.60
2017,06,15,19,41,12.90
2017,06,15,19,42,9.60
2017,06,15,19,43,9.60
2017,06,15,19,44,11.30
2017,06,15,19,46,6.40
2017,06,15,19,47,9.60
2017,06,15,19,48,14.50
2017,06,15,19,49,14.50
2017,06,15,19,50,1.60
2017,06,15,19,52,12.90
2017,06,15,19,53,8.10
2017,06,15,19,54,6.40
2017,06,15,19,55,8.10
2017,06,15,19,56,11.30
2017,06,15,19,57,17.70
2017,06,15,19,58,17.70
2017,06,15,19,59,1.60
2017,06,15,20,00,3.20
2017,06,15,20,01,9.60
2017,06,15,20,02,11.30
2017,06,15,20,03,1.60
2017,06,15,20,04,4.80
2017,06,15,20,05,6.40
2017,06,15,20,06,1.60
2017,06,15,20,08,9.60
2017,06,15,20,09,12.90
2017,06,15,20,10,11.30
2017,06,15,20,11,12.90
2017,06,15,20,12,9.60
2017,06,15,20,13,8.10
2017,06,15,20,14,1.60
2017,06,15,20,16,12.90
2017,06,15,20,17,11.30
2017,06,15,20,19,8.10
2017,06,15,20,20,12.90
2017,06,15,20,21,12.90
2017,06,15,20,22,11.30
2017,06,15,20,23,4.80
2017,06,15,20,24,11.30
2017,06,15,20,25,11.30
2017,06,15,20,26,20.90
2017,06,15,20,27,11.30
2017,06,15,20,28,19.30
2017,06,15,20,29,8.10
2017,06,15,20,30,8.10
2017,06,15,20,32,24.20
2017,06,15,20,33,9.60
2017,06,15,20,34,19.30
2017,06,15,20,35,8.10
2017,06,15,20,36,12.90
2017,06,15,20,37,11.30
2017,06,15,20,38,9.60
2017,06,15,20,39,8.10
2017,06,15,20,40,9.60
2017,06,15,20,41,9.60
2017,06,15,20,43,8.10
2017,06,15,20,46,1.60
2017,06,15,20,47,8.10
2017,06,15,20,48,12.90
2017,06,15,20,49,14.50
2017,06,15,20,50,1.60
2017,06,15,20,51,11.30
2017,06,15,20,52,3.20
2017,06,15,20,53,6.40
2017,06,15,20,54,8.10
2017,06,15,20,55,14.50
2017,06,15,20,56,12.90
2017,06,15,20,57,17.70
2017,06,15,20,58,14.50
2017,06,15,20,59,16.10
2017,06,15,21,00,16.10
2017,06,15,21,01,12.90
2017,06,15,21,02,16.10
2017,06,15,21,03,8.10
2017,06,15,21,05,8.10
2017,06,15,21,06,11.30
2017,06,15,21,08,9.60
2017,06,15,21,09,14.50
2017,06,15,21,10,3.20
2017,06,15,21,11,9.60
2017,06,15,21,12,11.30
2017,06,15,21,13,20.90
2017,06,15,21,14,4.80
2017,06,15,21,15,11.30
2017,06,15,21,16,11.30
2017,06,15,21,17,9.60
2017,06,15,21,18,17.70
2017,06,15,21,19,12.90
2017,06,15,21,20,14.50
2017,06,15,21,21,16.10
2017,06,15,21,22,11.30
2017,06,15,21,23,12.90
2017,06,15,21,24,8.10
2017,06,15,21,25,11.30
2017,06,15,21,26,20.90
2017,06,15,21,27,11.30
2017,06,15,21,28,14.50
2017,06,15,21,29,14.50
2017,06,15,21,30,8.10
2017,06,15,21,31,14.50
2017,06,15,21,32,16.10
2017,06,15,21,34,11.30
2017,06,15,21,35,16.10
2017,06,15,21,36,14.50
2017,06,15,21,37,9.60
2017,06,15,21,38,24.20
2017,06,15,21,39,14.50
2017,06,15,21,40,12.90
2017,06,15,21,42,8.10
2017,06,15,21,43,19.30
2017,06,15,21,44,19.30
2017,06,15,21,45,6.40
2017,06,15,21,46,17.70
2017,06,15,21,47,14.50
2017,06,15,21,48,14.50
2017,06,15,21,49,14.50
2017,06,15,21,50,12.90
2017,06,15,21,51,1.60
2017,06,15,21,52,8.10
2017,06,15,21,53,9.60
2017,06,15,21,54,6.40
2017,06,15,21,55,9.60
2017,06,15,21,56,14.50
2017,06,15,21,57,9.60
2017,06,15,21,58,6.40
2017,06,15,21,59,9.60
2017,06,15,22,01,17.70
2017,06,15,22,02,8.10
2017,06,15,22,03,22.50
2017,06,15,22,04,22.50
2017,06,15,22,05,14.50
2017,06,15,22,06,19.30
2017,06,15,22,07,8.10
2017,06,15,22,08,12.90
2017,06,15,22,09,19.30
2017,06,15,22,10,14.50
2017,06,15,22,11,11.30
2017,06,15,22,12,12.90
2017,06,15,22,13,9.60
2017,06,15,22,14,14.50
2017,06,15,22,16,14.50
2017,06,15,22,17,19.30
2017,06,15,22,18,9.60
2017,06,15,22,19,9.60
2017,06,15,22,20,9.60
2017,06,15,22,21,11.30
2017,06,15,22,22,8.10
2017,06,15,22,23,3.20
2017,06,15,22,24,12.90
2017,06,15,22,25,6.40
2017,06,15,22,26,16.10
2017,06,15,22,27,8.10
2017,06,15,22,28,12.90